Погода в Посадасе

Аргентина     27°23′36″S   55°58′19″W
темп.,
°C
ветер,
м/с
пор.,
м/с
влажн.,
%
обл.,
%
осадки,
мм/ч
давл.,
гПа
погр.,
м
16 июня, ср
ср1600:00+11ю498665 0.0 1024555
03:00+10ююв29911 0.0 1023378
06:00+8ююв29973 0.0 1022312
09:00+10ююв38834 0.0 1024341
12:00+15ююв346695 0.0 10241046
15:00+14ююв356777 0.0 1022954
18:00+12ю377284 0.0 1023271
21:00+10ю3107397 0.0 1025435
17 июня, чт
чт1700:00+10ююв41073100 0.0 1025463
03:00+9ююв397394 0.0 1025421
06:00+8ююв397687 0.0 1025375
09:00+9ююв377163 0.0 1027366
12:00+14ююв355473 0.0 1026881
15:00+14ююв345298 0.0 1024993
18:00+12ю376391 0.0 1024353
21:00+10ююв396958 0.0 1026378
18 июня, пт
пт1800:00+7ююв288044 0.0 1026213
03:00+8ююв277492 0.0 1025257
06:00+6ююв278326 0.0 1025189
09:00+8юв367311 0.0 1026231
12:00+13юв245596 0.0 1025583
15:00+15юв2456100 0.0 1022740
18:00+12ю2767100 0.0 1022225
21:00+12ю286990 0.0 1023273
19 июня, сб
сб1900:00+12ююв2472100 0.0 1021138
03:00+11ююв1285100 0.3 102053
06:00+10ююз2597100 2.3 1021221
09:00+10юз1497100 2.6 1022257
12:00+11ююз2697100 0.3 1023309
15:00+11ююз2695100 0.4 1021323
18:00+10юз2597100 0.1 1021213
21:00+10ююз1396100 0.1 1022110
20 июня, вс
вс2000:00+9ююз23983 0.0 102267
03:00+8ю22981 0.0 102243
06:00+7ююв12970 0.0 102218
09:00+9вюв12923 0.0 1023124
12:00+15в226824 0.0 1022678
15:00+17в2261100 0.0 10201027
18:00+12всв2288100 0.0 101925
21:00+10вюв2692100 0.0 1020118